Regional Weather Roundup
Issued by NWS Grand Forks, ND

Home | Current Version | Previous Version | Graphics & Text | Print | Product List | Glossary On
Versions: 1 2 3 4 5 6 7 8 9 10 11 12 13 14 15 16 17 18 19 20 21 22 23 24 25 26 27 28 29 30 31 32 33 34 35 36 37 38 39 40 41 42 43 44 45 46 47 48 49 50
000
ASUS43 KFGF 171931
RWRFGF
PRAIRIE TO PINES  WEATHER ROUNDUP
NATIONAL WEATHER SERVICE EASTERN NORTH DAKOTA/GRAND FORKS ND
200 PM CDT TUE OCT 17 2017

 **SATELLITE DATA USED TO AUGMENT SKY COVER AT AUTOMATED STATIONS**
 *****  WEATHER ACROSS EASTERN NORTH DAKOTA  *****

CITY           SKY/WX    TMP DP  RH WIND       PRES   REMARKS
GRAND FORKS    FAIR      75  38  26 S20G25    29.76F
GRAND FRKS AFB FAIR      73  35  25 S17       29.75F
DEVILS LAKE    FAIR      69  34  27 SW13      29.76F
FARGO          FAIR      73  40  30 S16       29.84F
WAHPETON ARPT  NOT AVBL
$$

 ***** WEATHER ACROSS CENTRAL AND WESTERN NORTH DAKOTA  *****

CITY           SKY/WX    TMP DP  RH WIND       PRES   REMARKS
BISMARCK       FAIR      76  31  19 SW13G20   29.83F
MINOT          FAIR      73  29  19 SW16G26   29.73F
JAMESTOWN      FAIR      74  31  20 W14       29.81F
MINOT AFB      FAIR      72  31  22 W16       29.71F
GARRISON         N/A     72  31  22 W18       29.78F
WILLISTON      FAIR      74  28  18 SW20      29.74F
DICKINSON      NOT AVBL
HETTINGER      FAIR      75  23  14 W21G30    29.91F
$$

 *****  OTHER AIRPORT OBSERVATIONS IN OUR AREA  *****

CITY           SKY/WX    TMP DP  RH WIND       PRES   REMARKS
WALHALLA       FAIR     N/A N/A N/A SW12      29.69F
GRAFTON AIRPOR FAIR      73  36  25 SW14      29.74F
VALLEY CITY AR FAIR      75  36  23 SW18G24   29.82F
CANDO          FAIR      73  32  21 SW20      29.73F
CAVALIER APRT  FAIR      72  37  28 SW13      29.70F
GWINNER        CLEAR     73  39  29 MISG      29.86F
SHEYENNE NWR     N/A     74  38  26 SW16      29.95S
ROLLA          FAIR      68  32  26 SW17      29.70F
 ***** THE ABOVE OBSERVATIONS ARE NON NWS ARE NOT QUALITY
       CONTROLLED AND MAY MIS-REPORT RAIN FOR SNOW...
$$

  *****  WEATHER ACROSS NORTHERN MINNESOTA  *****

CITY           SKY/WX    TMP DP  RH WIND       PRES   REMARKS
FLAG ISLAND    FAIR      57  46  67 S13       29.75F
WARROAD        FAIR      70  43  37 SW14G20   29.76F
ROSEAU         FAIR      72  39  30 S20       29.75F
HALLOCK        FAIR      73  34  23 S18       29.71F
THF RVR FALLS  FAIR      69  36  29 S21G26    29.80F
BAUDETTE         N/A    N/A N/A N/A MISG      29.80F
WASKISH        FAIR      70  37  30 SW14      29.83F
CROOKSTON      FAIR      72  37  28 S20       29.78F
STEPHEN NDAWN    N/A     72  37  28 S18         N/A
GREENBUSH NDAW   N/A     70  39  32 S20         N/A
$$
  *****  WEATHER ACROSS CENTRAL AND WEST MINNESOTA  *****

CITY           SKY/WX    TMP DP  RH WIND       PRES   REMARKS
FOSSTON        FAIR      70  34  26 S18       29.84F
BEMIDJI        FAIR      69  36  30 SW13G20   29.86F
PARK RAPIDS    FAIR      67  38  34 SW13      29.90F
ELBOW LAKE     FAIR      71  41  33 SW13      29.91F
WADENA         FAIR      70  39  32 SW12      29.90F
DETROIT LAKES  FAIR      68  37  32 S10       29.89F
MOORHEAD       FAIR      72  39  30 S9        29.85F
FERGUS FALLS   FAIR      72  43  35 SW12      29.88F
MORRIS MN      FAIR      72  43  35 SW10      29.91F
STAPLES        FAIR      68  36  30 SW7       29.92F
$$
  *****  WEATHER ELSEWHERE ACROSS MINNESOTA  *****

CITY           SKY/WX    TMP DP  RH WIND       PRES   REMARKS
DULUTH         FAIR      67  40  37 SW13      29.93F
INTRNTL FALLS  FAIR      71  35  26 SW12G20   29.84F
ELY            FAIR      66  28  24 S10       29.90F
CLOQUET        FAIR      68  32  26 S13       29.93F
WHEATON        FAIR      75  34  22 SW10      29.90F
BRAINERD       FAIR      68  38  33 S7        29.93F
HIBBING        FAIR      68  35  29 S7        29.91F
ALEXANDRIA     FAIR      71  39  31 SW12      29.94F
SAINT CLOUD    FAIR      70  42  36 S14       29.94F
MINNEAPOLIS    FAIR      68  46  45 SW6       29.98F
$$

  *****  WEATHER ACROSS SOUTH DAKOTA  *****

CITY           SKY/WX    TMP DP  RH WIND       PRES   REMARKS
SIOUX FALLS    FAIR      75  44  33 S8        30.00F
BROOKINGS      FAIR      74  36  25 W12       29.98F
WATERTOWN      FAIR      73  38  27 SW15      29.95F
HURON          FAIR      76  39  26 MISG      29.94F
SISSETON         N/A     75  37  25 SW14      29.89F
ABERDEEN       FAIR      75  41  29 S16G25    29.90F
MITCHELL       FAIR      78  36  21 S13       29.97F
PIERRE         FAIR      70  35  27 SW7       29.93F
MOBRIDGE       FAIR      77  37  23 S14       29.86F
RAPID CITY     FAIR      75  32  20 SE12      29.96F
$$

  *****  SOME WEATHER IN NEARBY STATES *****

CITY           SKY/WX    TMP DP  RH WIND       PRES   REMARKS
GLASGOW MT     FAIR      74  23  15 SW22G30   29.71F
GREAT FALLS MT FAIR      68  20  16 SW29G44   29.77F
CHEYENNE WY    FAIR      70   8   9 W30G39    30.18F
SCOTTSBLUFF NE FAIR      76  16  10 W13       30.07F
OMAHA NE       FAIR      68  44  42 S9        30.06F
DES MOINES IA  FAIR      72  43  35 S15G22    30.06F
DAVENPORT IA   FAIR      69  42  37 S14G23    30.15F
CHICAGO IL     FAIR      69  41  36 SW17G28   30.14F
EAU CLAIRE WI  FAIR      69  43  38 S13       29.99F
LA CROSSE WI   FAIR      69  46  43 S12       30.02F
$$

  *****  SOME NATIONAL WEATHER *****

CITY           SKY/WX    TMP DP  RH WIND       PRES   REMARKS
LA GUARDIA NY  FAIR      59  31  34 VRB5      30.27F
RALEIGH NC     FAIR      64  36  35 VRB5      30.31F
ATLANTA GA     FAIR      67  40  37 NE12      30.27F
NEW ORLEANS LA FAIR      71  59  65 NE9       30.17F
OKLAHOMA CITY  FAIR      71  41  33 S17G23    30.20F
ALBUQUERQUE NM FAIR      68  34  28 VRB3      30.32F
SALT LAKE CITY PTSUNNY   63  26  24 NW5       30.24F
LOS ANGELES CA FAIR      86  39  19 W10       29.99F
BOISE ID       FAIR      53  29  39 N9        30.17F
SEATTLE WA     PTSUNNY   56  49  77 SW18G26   30.04R
$$

*** WEATHER ACROSS MANITOBA...SASKATCHEWAN AND ONTARIO ***
                ***ONTARIO***

CITY           SKY/WX    TMP DP  RH WIND       PRES   REMARKS
GERALDTON      PTSUNNY   54  32  43 W12G17    29.86R
THUNDER BAY    PTSUNNY   64  34  32 W7        29.90F
SIOUX LOOKOUT  CLOUDY    59  36  41 SW6       29.84F
TORONTO        MOSUNNY   66  37  34 SW22G30   30.06F
BIG TROUT LK   PTSUNNY   39  30  70 W8        29.85S
PICKLE LAKE    PTSUNNY   41  32  70 NW6       29.86S
DRYDEN         SUNNY     63  36  36 S10       29.81F
KENORA         PTSUNNY   61  39  44 S16G24    29.77F
$$
                *** MANITOBA***

CITY           SKY/WX    TMP DP  RH WIND       PRES   REMARKS
BRANDON        CLOUDY    64  36  34 SW14G20   29.64F
DAUPHIN        SUNNY     68  34  28 SW9       29.57F
ISLAND LAKE    PTSUNNY   41  34  75 SE10      29.78F
PILOT MOUND      N/A     68  32  26 SW16        N/A
THE PAS        PTSUNNY   54  36  50 SE17G26   29.52F
THOMPSON       CLOUDY    36  32  87 SE6       29.70F
WINNIPEG       CLOUDY    66  37  34 S20       29.67F
LYNN LAKE      CLOUDY    34  34 100 SE13      29.56F WCI  25
CHURCHILL      PTSUNNY   25  23  93 W9        29.82F WCI  15
GILLAM         FLURRIES  30  27  86 SW3       29.81F
$$
                ***SASKATCHEWAN***

CITY           SKY/WX    TMP DP  RH WIND       PRES   REMARKS
ESTEVAN        PTSUNNY   72  32  23 W16G25    29.67F
KINDERSLEY     PTSUNNY   70  36  28 SW24G32   29.35F
LLOYDMINSTER   CLOUDY    57  37  47 S21       29.23F
PRINCE ALBERT  PTSUNNY   52  36  54 S7        29.42F
REGINA         MOSUNNY   70  32  24 SW23      29.55F
YORKTON        SUNNY     64  34  32 S14G20    29.53F
N. BATTLEFORD  SUNNY     64  37  36 S16G25    29.33F
LA RONGE       CLOUDY    50  37  62 NE8       29.38F
SASKATOON      PTSUNNY   66  36  32 S16G23    29.40F
SWIFT CURRENT  SUNNY     72  28  20 W35G47    29.49F
$$
NOTE: THESE ARE AUTOMATED STATIONS WITH LIMITED QUALITY CONTROL
      "FAIR" INDICATES FEW OR NO CLOUDS BELOW 12,000 FEET WITH NO
      SIGNIFICANT WEATHER AND/OR OBSTRUCTIONS TO VISIBILITY.
      SKY/WX - SKY CONDITION AND SIGNIFICANT WEATHER.
      TMP - AIR TEMPERATURE.    DP   - DEWPOINT TEMPERATURE.
      RH  - RELATIVE HUMIDITY.  PRES - PRESSURE.
      HX  - HEAT INDEX.         WCI  - WIND CHILL INDEX.
$




USA.gov is the U.S. government's official web portal to all federal, state and local government web resources and services.